RH
46 46 47 47 47 48 48 46 47 49 52 63 99 94 92 81 82 66 47 52 64 64 58 39 39 77 72 69 64 60 70 60 58 58 51 55 47 28 38 42 41 41 43 43 42
50 52 51 48 47 45 44 42 43 45 44 54 79 62 74 90 95 81 64 65 59 73 62 58 35 73 85 72 70 67 74 63 66 60 49 52 60 42 33 39 43 44 43 43 44
51 51 54 52 53 54 52 48 46 48 45 42 38 37 40 88 98 84 62 79 79 80 73 68 49 38 83 81 82 77 76 69 57 52 54 53 59 57 35 34 39 43 45 44 45
49 57 55 54 55 60 60 52 46 41 38 36 36 36 36 79 88 96 69 65 74 81 76 75 58 37 69 93 90 78 63 75 55 56 60 56 56 56 47 32 36 37 44 45 44
49 63 65 67 68 64 66 58 49 42 40 39 35 32 44 65 86 98 87 59 55 71 69 79 68 41 63 92 99 75 81 71 56 58 61 60 56 58 48 28 27 29 36 44 45
49 59 65 73 70 73 71 64 53 45 43 38 40 63 53 69 50 63 92 84 64 58 58 71 77 76 91 96 99 87 90 75 65 61 68 62 54 61 42 48 36 25 28 35 37
43 52 61 75 73 80 85 73 59 48 44 49 86 90 81 64 57 54 51 61 63 59 58 66 76 89 92 98 98 98 95 88 68 64 74 62 52 51 50 45 32 28 20 22 23
32 40 58 82 85 91 93 80 73 61 56 62 88 87 83 62 64 57 61 64 63 56 52 70 72 81 99 98 99 99 98 81 73 86 73 70 58 57 45 30 27 20 22 20 18
21 30 56 88 83 98 100 96 97 76 74 77 80 81 69 56 51 63 62 59 61 67 55 79 68 96 97 97 98 100 84 78 72 86 80 82 59 52 35 34 35 40 37 32 25
17 24 71 85 88 100 100 99 96 99 98 99 98 91 70 57 58 60 73 68 68 80 88 85 79 99 99 99 95 86 82 70 73 72 65 66 55 53 44 36 40 41 41 36 31
13 14 77 92 92 96 100 99 99 100 96 77 83 80 74 61 62 61 68 74 74 84 95 93 90 98 95 99 89 70 71 75 71 70 72 72 68 59 43 36 35 39 41 38 38
14 6 77 90 97 100 99 99 98 99 97 88 95 97 94 83 66 75 77 72 72 68 100 99 98 97 100 98 95 80 76 74 66 70 75 71 71 64 48 38 30 34 39 37 34
19 8 69 85 90 93 99 98 98 98 98 97 98 97 96 86 63 78 76 72 65 73 99 88 92 100 100 100 99 82 82 68 66 78 82 79 59 54 44 36 33 30 36 36 31
50 21 28 80 68 91 99 98 98 98 98 95 99 94 94 93 71 64 83 76 88 92 98 98 99 100 99 99 99 81 85 83 82 89 69 71 50 52 43 39 33 30 28 30 32
74 35 27 24 60 81 99 98 98 98 95 88 95 98 93 80 82 60 76 88 77 95 98 84 99 100 100 96 96 80 83 87 90 90 86 70 58 44 41 40 35 28 31 36 34
81 34 30 36 43 68 99 98 98 98 92 93 98 97 94 88 79 74 89 87 92 99 99 81 96 99 99 99 96 92 90 91 90 84 70 58 55 40 36 34 33 35 40 37 37
87 31 29 36 52 70 92 98 98 97 94 98 96 97 97 69 85 92 84 80 94 98 96 95 99 99 100 100 99 93 94 98 96 88 60 53 55 40 35 33 34 36 35 36 36
88 35 27 38 61 80 96 98 97 96 96 94 96 98 98 98 99 88 99 100 95 100 85 96 99 100 99 98 97 87 85 61 63 60 47 55 47 36 36 35 31 31 37 36 36
86 35 26 53 64 76 99 98 92 97 97 96 98 96 100 99 89 98 99 92 91 99 96 98 99 100 94 99 85 99 98 73 58 59 48 46 48 42 43 38 35 39 33 37 38
88 30 42 66 71 99 98 98 97 98 98 100 87 92 83 91 77 98 90 78 94 96 100 93 99 100 99 99 98 99 94 88 68 58 54 43 46 38 39 36 38 37 36 38 39
86 31 58 88 100 100 98 98 98 99 99 89 82 86 80 84 77 94 85 85 61 85 99 96 90 98 100 99 96 100 99 96 68 58 42 40 37 39 36 32 36 36 36 36 39
72 51 71 100 100 99 98 98 98 99 78 68 70 74 70 87 89 96 81 92 65 82 95 82 70 98 96 94 91 85 87 85 70 61 56 48 37 38 35 31 34 35 36 38 42
54 82 98 100 98 99 98 98 99 100 88 78 69 81 61 83 78 96 91 56 60 77 83 80 69 78 97 91 85 98 93 87 67 55 53 47 42 39 38 35 34 35 37 40 42
47 99 99 100 100 100 99 99 99 87 92 100 80 76 44 51 69 73 98 62 84 79 78 78 70 54 57 62 70 79 81 79 78 67 54 50 44 42 40 37 38 39 38 37 42
43 88 98 98 96 100 100 99 100 99 96 100 88 74 69 77 93 93 97 92 87 85 77 89 69 71 65 60 60 62 65 68 73 68 57 51 52 48 47 42 40 44 47 44 42
51 60 93 92 80 93 100 98 99 100 98 99 98 82 88 69 67 92 69 94 90 96 74 88 79 65 64 64 65 63 58 58 58 68 60 55 53 52 51 48 42 48 50 49 45
71 35 77 79 74 89 100 99 99 100 99 100 99 97 98 86 75 66 84 90 79 81 75 94 82 74 60 59 67 67 66 60 55 57 56 56 45 53 43 40 44 47 51 49 52
Wind_Speed
16 17 17 19 20 21 23 24 26 27 33 29 25 26 27 26 31 32 34 31 33 33 36 36 39 37 35 31 26 24 19 22 19 14 10 11 12 14 17 15 16 16 17 17 16
16 18 19 19 19 19 21 22 25 27 29 32 36 36 30 30 33 39 29 27 28 29 34 34 35 38 37 34 30 28 22 24 18 16 16 16 14 14 17 20 16 18 19 21 18
17 21 21 20 20 21 22 22 23 26 28 30 33 33 35 34 35 40 30 27 26 27 31 33 33 38 38 37 32 30 29 21 23 20 19 19 16 17 17 23 20 20 22 22 19
18 21 20 20 19 20 21 20 19 20 21 24 27 29 31 36 27 27 29 33 28 26 30 33 33 37 39 37 32 30 33 25 24 22 21 20 21 17 20 25 23 24 25 25 24
16 17 21 23 23 23 21 18 18 17 18 18 21 26 29 33 38 32 18 17 23 32 31 32 34 36 39 35 28 36 25 26 25 22 22 20 23 22 23 17 26 27 28 28 28
16 18 23 25 24 20 18 16 15 15 14 15 18 20 28 36 35 35 38 32 20 14 31 35 34 31 27 31 35 25 30 26 23 23 22 22 24 26 8 16 25 30 32 32 31
16 17 25 24 23 21 18 15 15 14 14 14 17 21 27 27 26 28 30 32 29 30 27 34 30 30 29 29 31 29 21 20 23 23 22 23 28 24 17 20 18 23 30 34 35
18 16 22 20 26 24 21 15 13 14 16 18 20 22 29 21 24 29 31 29 24 30 34 31 35 36 31 25 21 31 26 27 23 19 22 21 24 15 15 7 8 14 19 24 25
18 16 19 17 23 21 17 14 12 14 17 21 24 26 31 26 25 22 26 28 27 32 33 31 42 37 34 33 26 28 27 30 22 19 19 20 19 10 12 14 11 13 8 8 8
17 16 17 18 22 23 19 16 13 21 22 24 25 23 28 16 13 21 24 25 28 28 31 34 47 41 40 38 41 25 28 20 25 19 19 17 23 19 13 13 14 15 10 8 8
16 16 17 20 23 24 23 22 21 29 34 33 22 27 24 14 9 18 25 27 27 32 34 37 51 50 45 43 28 29 24 21 17 18 14 16 22 20 13 15 16 18 15 13 11
16 16 18 19 24 27 23 28 30 30 32 31 36 33 26 23 13 16 20 30 29 39 30 36 53 46 30 42 29 26 24 23 18 19 18 15 23 21 17 17 18 19 19 15 15
15 16 19 19 16 24 24 27 29 30 32 33 35 35 27 26 24 16 16 26 30 37 31 48 51 33 31 41 32 25 23 19 14 12 14 17 23 17 17 17 20 21 20 20 16
15 16 18 20 20 21 19 22 29 25 18 16 27 29 27 28 30 26 17 24 25 31 28 39 29 36 44 36 34 29 20 15 14 10 8 4 6 11 12 16 16 21 17 24 17
16 17 17 19 21 22 19 22 18 23 5 5 18 16 22 33 15 23 21 27 28 28 24 34 37 32 39 41 36 24 25 17 12 10 9 10 8 10 7 15 15 13 20 22 21
16 17 18 18 19 20 13 15 15 12 7 9 11 23 19 29 20 15 23 30 24 19 16 31 28 28 36 35 34 18 19 15 10 5 8 15 12 7 5 1 8 17 19 21 20
15 18 19 17 17 19 17 21 9 8 5 9 13 18 23 29 28 18 30 35 28 17 21 39 20 30 27 36 33 24 22 6 6 5 6 7 9 13 6 6 3 10 18 21 18
15 18 19 16 17 17 18 18 11 9 16 7 13 17 18 21 22 24 24 30 39 11 19 25 8 33 39 36 29 37 24 7 5 6 6 11 7 3 3 2 10 11 17 21 19
15 18 19 16 18 19 20 26 11 11 13 16 15 19 13 22 17 20 25 29 36 13 7 25 5 26 36 30 25 27 24 8 5 2 3 6 5 7 5 1 9 11 23 24 21
15 16 17 15 13 16 30 26 18 12 6 17 13 17 18 25 20 22 22 24 31 23 10 20 6 20 24 30 28 26 27 9 5 5 5 5 4 4 1 3 4 10 20 26 24
14 15 14 10 9 22 36 24 27 19 13 21 13 17 17 25 20 22 19 11 36 26 14 15 5 15 23 18 29 20 27 10 11 4 3 3 5 11 6 5 2 8 17 26 26
13 13 12 7 18 25 34 28 14 7 18 14 12 15 19 21 24 18 20 11 26 31 21 21 9 14 20 12 20 21 17 18 13 6 5 1 3 12 5 6 0 3 14 24 24
13 10 11 9 14 24 24 21 11 19 17 17 16 15 21 23 16 21 22 27 28 33 24 20 10 13 8 9 17 25 23 25 17 15 15 10 5 10 4 0 1 1 6 18 22
14 10 13 19 20 20 13 12 11 19 20 15 13 15 22 26 22 23 20 29 17 29 25 18 10 20 18 16 21 26 30 28 26 21 15 19 11 13 11 8 5 4 6 12 19
18 15 15 15 14 15 14 21 21 24 26 19 22 21 22 21 22 19 23 22 30 24 27 17 7 17 15 13 20 26 30 32 32 31 22 22 26 22 22 22 21 19 16 20 22
19 21 16 16 15 18 17 19 24 26 33 29 22 26 20 26 29 26 27 24 31 33 43 22 7 14 18 18 17 21 24 31 35 31 33 24 28 26 26 24 24 20 22 24 26
18 19 20 16 12 15 15 10 12 31 28 24 23 27 22 21 18 15 21 18 18 38 47 26 13 9 5 11 14 14 27 28 28 33 34 33 29 26 27 26 25 23 21 23 25
Wind_Direction
298 300 294 290 283 276 271 265 258 254 249 254 250 251 258 254 253 250 247 244 241 239 238 235 231 233 235 237 234 234 235 238 240 245 254 261 259 242 232 230 224 227 225 227 225
306 307 301 293 285 275 268 264 261 255 254 246 247 254 249 249 253 252 249 247 237 240 235 233 229 228 231 234 231 228 231 238 238 246 260 259 262 252 235 238 233 237 234 237 236
313 311 306 296 288 281 276 265 258 253 252 252 251 251 249 244 253 260 253 236 232 230 234 229 225 222 228 231 226 230 233 237 245 252 254 253 260 259 243 231 238 240 236 243 241
316 316 304 300 294 291 281 269 257 248 246 246 247 246 239 239 251 262 249 238 235 232 228 227 218 218 220 224 224 229 238 232 244 245 256 258 258 255 254 232 241 244 243 239 245
314 318 312 302 299 294 273 261 251 245 243 241 242 241 239 235 231 242 249 255 240 234 238 232 221 215 216 222 222 231 230 238 241 246 255 253 254 266 254 245 246 250 245 243 244
307 316 319 308 302 288 276 267 255 241 235 236 240 237 236 238 246 242 249 249 233 235 233 232 225 215 221 222 220 234 230 241 244 245 254 252 251 265 249 264 252 250 248 250 253
295 314 319 317 311 303 291 267 249 237 231 229 232 237 240 242 247 250 250 254 248 237 240 229 216 210 214 220 223 223 232 237 238 246 254 255 255 259 282 284 272 257 250 252 256
286 305 323 320 314 304 293 270 244 236 231 230 236 240 250 246 245 246 248 247 248 233 227 225 210 207 203 211 221 217 227 231 234 241 246 249 259 258 269 275 252 239 241 248 256
282 295 316 307 334 321 294 272 255 243 239 238 239 245 256 256 253 252 244 238 237 226 221 216 205 202 198 200 209 208 218 224 227 238 235 246 251 242 242 257 242 215 233 245 243
282 288 305 304 318 311 292 255 236 240 232 234 241 242 251 259 258 238 230 230 222 216 219 207 202 203 201 200 203 197 206 222 224 233 238 233 245 247 266 246 243 229 245 232 223
284 279 287 295 299 305 290 243 238 233 232 234 238 243 249 247 250 237 221 217 216 206 215 207 199 210 204 203 204 208 205 210 215 223 229 244 255 252 245 249 242 242 242 236 229
288 277 282 286 296 291 283 242 229 249 242 247 243 239 239 243 229 207 211 213 211 213 209 195 205 203 200 202 193 200 206 209 220 231 243 254 260 261 260 250 237 236 238 239 235
294 281 278 285 298 302 290 244 240 257 259 264 245 243 234 238 230 221 221 214 213 222 213 193 203 200 198 194 192 198 197 191 199 220 240 270 275 262 253 243 233 231 229 233 236
297 289 275 281 295 306 279 259 250 252 251 258 235 234 221 225 237 228 220 221 214 224 211 198 192 201 208 196 190 194 187 186 202 217 229 213 270 255 224 251 235 226 228 228 227
292 292 283 280 284 294 289 261 260 230 257 223 218 224 214 213 229 211 214 211 214 213 190 191 210 189 198 194 191 198 201 207 218 249 273 246 259 253 229 267 258 228 214 207 200
289 292 282 282 283 292 275 236 236 227 243 212 207 204 192 200 195 197 203 200 199 220 222 199 208 208 193 187 191 193 188 194 220 243 249 240 228 270 209 251 238 199 192 192 191
286 289 282 277 283 286 297 247 215 223 216 209 198 193 192 192 198 214 194 196 204 167 205 199 223 192 179 187 180 175 170 140 192 203 238 203 204 236 235 252 129 187 185 188 194
279 286 280 278 279 277 281 228 225 245 213 198 197 183 175 180 194 209 200 205 207 183 198 194 215 181 181 186 182 183 181 180 172 189 175 199 233 211 143 196 221 202 195 200 199
275 282 280 280 278 272 240 204 225 244 244 187 167 175 167 182 191 199 205 204 215 167 173 197 257 184 182 179 179 177 192 185 123 105 225 187 241 261 258 258 222 211 198 199 202
271 278 280 275 268 257 217 222 240 264 232 172 168 178 180 183 190 195 192 209 215 181 161 196 163 158 172 178 184 192 186 184 188 197 223 186 225 191 58 330 224 223 212 199 199
267 273 277 262 254 227 220 241 255 283 229 176 183 176 180 183 192 188 196 209 212 175 166 168 186 153 163 189 185 164 192 184 193 216 229 172 151 161 135 40 330 230 212 205 199
259 257 272 274 208 234 235 251 268 178 181 173 199 179 182 179 195 184 203 201 200 180 182 159 187 161 173 195 202 201 194 191 199 199 222 354 164 183 331 334 296 292 215 203 201
243 249 259 256 235 245 255 271 264 188 179 179 204 193 182 182 194 194 204 199 192 190 179 168 179 144 171 198 195 208 199 206 213 212 209 213 200 224 207 150 102 1 212 203 206
223 215 231 237 259 253 260 251 205 187 177 187 198 192 193 198 201 204 201 195 179 202 167 187 201 204 198 210 198 202 210 216 212 218 215 222 219 222 244 246 234 225 249 233 219
221 224 235 243 277 291 278 259 196 194 195 197 207 203 188 189 199 203 194 207 205 188 178 206 223 206 215 208 212 222 219 218 216 218 225 243 242 248 251 257 260 270 254 253 250
225 221 237 257 285 292 278 247 209 202 201 203 199 203 206 202 197 191 193 205 202 186 191 194 216 210 221 226 226 223 235 232 229 225 234 240 255 258 260 261 258 260 271 257 245
225 227 235 249 265 289 294 258 256 199 211 214 204 198 203 205 212 215 201 203 213 194 191 195 208 214 206 220 220 235 226 230 232 231 235 236 252 260 266 264 262 266 258 243 247